Wetterdaten: Donnerstag, 12.04.2007
Datum Zeit Temp. a Sch. Temp. a Son. Temp. a Bod. Feuchte a. Luftdruck Regen Wind Richtung Richtung Sonnenschein Helligkeit Taupunkt Windchill
12.04.2007 00:02 8,7 C 9,2 C 7,3 C 69 % 1023 hPa 0,0 l/m 0,8 m/s (1 Bft) O 90 0 min 0 lux 3,3 C 8,7 C
12.04.2007 00:07 8,2 C 9,2 C 7,1 C 69 % 1023 hPa 0,0 l/m 0,0 m/s (0 Bft) SO 130 0 min 0 lux 2,9 C 8,2 C
12.04.2007 00:12 7,8 C 9,0 C 7,0 C 70 % 1023 hPa 0,0 l/m 0,0 m/s (0 Bft) SO 130 0 min 0 lux 2,7 C 7,8 C
12.04.2007 00:17 7,5 C 8,9 C 7,1 C 71 % 1023 hPa 0,0 l/m 0,0 m/s (0 Bft) SO 130 0 min 0 lux 2,6 C 7,5 C
12.04.2007 00:22 7,4 C 8,8 C 6,9 C 71 % 1023 hPa 0,0 l/m 0,0 m/s (0 Bft) SO 130 0 min 0 lux 2,5 C 7,4 C
12.04.2007 00:27 7,4 C 8,6 C 6,7 C 71 % 1023 hPa 0,0 l/m 0,0 m/s (0 Bft) SO 130 0 min 0 lux 2,5 C 7,4 C
12.04.2007 00:32 7,0 C 8,5 C 6,7 C 73 % 1023 hPa 0,0 l/m 0,0 m/s (0 Bft) SO 130 0 min 0 lux 2,5 C 7,0 C
12.04.2007 00:37 7,0 C 8,4 C 6,7 C 73 % 1023 hPa 0,0 l/m 0,0 m/s (0 Bft) SO 125 0 min 0 lux 2,5 C 7,0 C
12.04.2007 00:42 7,2 C 8,4 C 6,3 C 75 % 1023 hPa 0,0 l/m 0,0 m/s (0 Bft) SO 125 0 min 0 lux 3,1 C 7,2 C
12.04.2007 00:47 7,4 C 8,2 C 6,2 C 76 % 1023 hPa 0,0 l/m 0,0 m/s (0 Bft) SO 125 0 min 0 lux 3,5 C 7,4 C
12.04.2007 00:52 7,4 C 8,1 C 6,5 C 76 % 1023 hPa 0,0 l/m 0,0 m/s (0 Bft) SO 130 0 min 0 lux 3,5 C 7,4 C
12.04.2007 00:57 7,2 C 8,1 C 6,5 C 76 % 1023 hPa 0,0 l/m 0,0 m/s (0 Bft) SO 135 0 min 0 lux 3,3 C 7,2 C
12.04.2007 01:02 7,1 C 8,0 C 6,4 C 76 % 1023 hPa 0,0 l/m 0,0 m/s (0 Bft) SO 125 0 min 0 lux 3,2 C 7,1 C
12.04.2007 01:07 7,2 C 7,9 C 6,4 C 77 % 1023 hPa 0,0 l/m 0,0 m/s (0 Bft) SO 125 0 min 0 lux 3,4 C 7,2 C
12.04.2007 01:12 6,9 C 7,8 C 6,3 C 78 % 1023 hPa 0,0 l/m 0,1 m/s (0 Bft) SO 130 0 min 0 lux 3,3 C 6,9 C
12.04.2007 01:17 7,3 C 7,7 C 6,4 C 77 % 1023 hPa 0,0 l/m 1,0 m/s (1 Bft) O-SO45 120 0 min 0 lux 3,5 C 7,3 C
12.04.2007 01:22 7,4 C 7,6 C 6,5 C 77 % 1023 hPa 0,0 l/m 1,3 m/s (1 Bft) SO22.5 130 0 min 0 lux 3,6 C 7,4 C
12.04.2007 01:27 7,3 C 7,5 C 6,3 C 77 % 1023 hPa 0,0 l/m 0,1 m/s (0 Bft) O-SO 105 0 min 0 lux 3,5 C 7,3 C
12.04.2007 01:32 6,7 C 7,5 C 6,0 C 77 % 1023 hPa 0,0 l/m 0,0 m/s (0 Bft) O-SO 105 0 min 0 lux 3,0 C 6,7 C
12.04.2007 01:37 6,6 C 7,4 C 6,0 C 77 % 1023 hPa 0,0 l/m 0,0 m/s (0 Bft) O-SO 105 0 min 0 lux 2,9 C 6,6 C
12.04.2007 01:42 6,4 C 7,3 C 5,8 C 78 % 1023 hPa 0,0 l/m 0,0 m/s (0 Bft) O-SO 105 0 min 0 lux 2,8 C 6,4 C
12.04.2007 01:47 6,2 C 7,2 C 5,9 C 78 % 1023 hPa 0,0 l/m 0,0 m/s (0 Bft) O-SO 105 0 min 0 lux 2,7 C 6,2 C
12.04.2007 01:52 6,1 C 7,2 C 5,8 C 79 % 1023 hPa 0,0 l/m 0,0 m/s (0 Bft) O-SO 105 0 min 0 lux 2,7 C 6,1 C
12.04.2007 01:57 5,9 C 7,1 C 5,9 C 80 % 1023 hPa 0,0 l/m 0,0 m/s (0 Bft) O-SO 105 0 min 0 lux 2,7 C 5,9 C
12.04.2007 02:02 5,9 C 7,0 C 5,6 C 80 % 1023 hPa 0,0 l/m 0,0 m/s (0 Bft) O-SO 105 0 min 0 lux 2,7 C 5,9 C
12.04.2007 02:07 5,9 C 7,0 C 5,6 C 80 % 1023 hPa 0,0 l/m 0,0 m/s (0 Bft) O-SO 105 0 min 0 lux 2,7 C 5,9 C
12.04.2007 02:12 5,7 C 6,9 C 5,6 C 81 % 1023 hPa 0,0 l/m 0,0 m/s (0 Bft) O-SO 105 0 min 0 lux 2,7 C 5,7 C
12.04.2007 02:17 5,8 C 6,8 C 5,6 C 81 % 1023 hPa 0,0 l/m 0,0 m/s (0 Bft) O-SO 105 0 min 0 lux 2,8 C 5,8 C
12.04.2007 02:22 5,7 C 6,8 C 5,4 C 82 % 1023 hPa 0,0 l/m 0,0 m/s (0 Bft) O-SO 105 0 min 0 lux 2,9 C 5,7 C
12.04.2007 02:27 5,6 C 6,7 C 5,4 C 82 % 1023 hPa 0,0 l/m 0,0 m/s (0 Bft) O-NO45 70 0 min 0 lux 2,8 C 5,6 C
12.04.2007 02:32 5,6 C 6,7 C 5,4 C 82 % 1023 hPa 0,0 l/m 0,0 m/s (0 Bft) O-NO 65 0 min 0 lux 2,8 C 5,6 C
12.04.2007 02:37 5,6 C 6,6 C 5,3 C 83 % 1023 hPa 0,0 l/m 0,0 m/s (0 Bft) O-NO 65 0 min 0 lux 2,9 C 5,6 C
12.04.2007 02:42 5,5 C 6,5 C 4,8 C 82 % 1023 hPa 0,0 l/m 0,0 m/s (0 Bft) O-NO 65 0 min 0 lux 2,7 C 5,5 C
12.04.2007 02:47 5,6 C 6,4 C 5,0 C 83 % 1023 hPa 0,0 l/m 0,0 m/s (0 Bft) O-NO 65 0 min 0 lux 2,9 C 5,6 C
12.04.2007 02:52 5,1 C 6,3 C 4,8 C 83 % 1023 hPa 0,0 l/m 0,0 m/s (0 Bft) O-NO 65 0 min 0 lux 2,5 C 5,1 C
12.04.2007 02:57 5,0 C 6,2 C 4,9 C 83 % 1023 hPa 0,0 l/m 0,0 m/s (0 Bft) O-NO 65 0 min 0 lux 2,4 C 5,0 C
12.04.2007 03:02 4,8 C 6,2 C 4,8 C 84 % 1023 hPa 0,0 l/m 0,0 m/s (0 Bft) O-NO 65 0 min 0 lux 2,3 C 4,8 C
12.04.2007 03:07 4,9 C 6,0 C 4,7 C 85 % 1022 hPa 0,0 l/m 0,0 m/s (0 Bft) O-NO 65 0 min 0 lux 2,6 C 4,9 C
12.04.2007 03:12 4,6 C 6,0 C 4,7 C 85 % 1022 hPa 0,0 l/m 0,0 m/s (0 Bft) O-NO 65 0 min 0 lux 2,3 C 4,6 C
12.04.2007 03:17 4,5 C 5,9 C 4,5 C 85 % 1022 hPa 0,0 l/m 0,0 m/s (0 Bft) O-NO 65 0 min 0 lux 2,2 C 4,5 C
12.04.2007 03:22 4,5 C 5,8 C 4,6 C 85 % 1022 hPa 0,0 l/m 0,0 m/s (0 Bft) O-NO 65 0 min 0 lux 2,2 C 4,5 C
12.04.2007 03:27 4,7 C 5,7 C 4,5 C 86 % 1022 hPa 0,0 l/m 0,0 m/s (0 Bft) O-NO 65 0 min 0 lux 2,6 C 4,7 C
12.04.2007 03:32 4,6 C 5,7 C 4,2 C 86 % 1022 hPa 0,0 l/m 0,0 m/s (0 Bft) O-NO 65 0 min 0 lux 2,5 C 4,6 C
12.04.2007 03:37 4,3 C 5,5 C 4,1 C 86 % 1022 hPa 0,0 l/m 0,0 m/s (0 Bft) O-NO 65 0 min 0 lux 2,2 C 4,3 C
12.04.2007 03:42 4,1 C 5,5 C 4,3 C 86 % 1022 hPa 0,0 l/m 0,0 m/s (0 Bft) O-NO 65 0 min 0 lux 2,0 C 4,1 C
12.04.2007 03:47 4,0 C 5,5 C 4,1 C 86 % 1022 hPa 0,0 l/m 0,0 m/s (0 Bft) O-NO 65 0 min 0 lux 1,9 C 4,0 C
12.04.2007 03:52 4,0 C 5,3 C 3,9 C 86 % 1022 hPa 0,0 l/m 0,0 m/s (0 Bft) O-NO 65 0 min 0 lux 1,9 C 4,0 C
12.04.2007 03:57 4,0 C 5,2 C 3,9 C 86 % 1022 hPa 0,0 l/m 0,0 m/s (0 Bft) O-NO 65 0 min 0 lux 1,9 C 4,0 C
12.04.2007 04:02 4,1 C 5,2 C 3,9 C 87 % 1022 hPa 0,0 l/m 0,0 m/s (0 Bft) O-NO 65 0 min 0 lux 2,1 C 4,1 C
12.04.2007 04:07 4,3 C 5,1 C 3,8 C 87 % 1022 hPa 0,0 l/m 0,0 m/s (0 Bft) O-NO 65 0 min 0 lux 2,3 C 4,3 C
12.04.2007 04:12 4,0 C 5,0 C 3,9 C 87 % 1022 hPa 0,0 l/m 0,0 m/s (0 Bft) O-NO 65 0 min 0 lux 2,0 C 4,0 C
12.04.2007 04:17 3,9 C 5,0 C 3,8 C 88 % 1022 hPa 0,0 l/m 0,0 m/s (0 Bft) O-NO 65 0 min 0 lux 2,1 C 3,9 C
12.04.2007 04:22 3,7 C 5,0 C 3,7 C 88 % 1022 hPa 0,0 l/m 0,0 m/s (0 Bft) O-NO 65 0 min 0 lux 1,9 C 3,7 C
12.04.2007 04:27 3,8 C 4,9 C 3,6 C 88 % 1022 hPa 0,0 l/m 0,0 m/s (0 Bft) O-NO 65 0 min 0 lux 2,0 C 3,8 C
12.04.2007 04:32 3,7 C 4,8 C 3,5 C 88 % 1022 hPa 0,0 l/m 0,0 m/s (0 Bft) O-NO 65 0 min 0 lux 1,9 C 3,7 C
12.04.2007 04:37 3,5 C 4,7 C 3,5 C 88 % 1022 hPa 0,0 l/m 0,0 m/s (0 Bft) O-NO 65 0 min 0 lux 1,7 C 3,5 C
12.04.2007 04:42 3,6 C 4,7 C 3,5 C 88 % 1022 hPa 0,0 l/m 0,0 m/s (0 Bft) O-NO 65 0 min 0 lux 1,8 C 3,6 C
12.04.2007 04:47 3,5 C 4,6 C 3,7 C 88 % 1022 hPa 0,0 l/m 0,0 m/s (0 Bft) O-NO 65 0 min 0 lux 1,7 C 3,5 C
12.04.2007 04:52 3,6 C 4,5 C 3,6 C 88 % 1022 hPa 0,0 l/m 0,0 m/s (0 Bft) O-NO 65 0 min 0 lux 1,8 C 3,6 C
12.04.2007 04:57 3,2 C 4,4 C 3,5 C 88 % 1022 hPa 0,0 l/m 0,0 m/s (0 Bft) O-NO 65 0 min 0 lux 1,4 C 3,2 C
12.04.2007 05:02 3,2 C 4,3 C 3,5 C 88 % 1022 hPa 0,0 l/m 0,0 m/s (0 Bft) O-NO 65 0 min 0 lux 1,4 C 3,2 C
12.04.2007 05:07 3,2 C 4,2 C 3,3 C 88 % 1022 hPa 0,0 l/m 0,0 m/s (0 Bft) O-NO 65 0 min 0 lux 1,4 C 3,2 C
12.04.2007 05:12 3,2 C 4,2 C 3,4 C 88 % 1022 hPa 0,0 l/m 0,0 m/s (0 Bft) O-NO 65 0 min 0 lux 1,4 C 3,2 C
12.04.2007 05:17 3,4 C 4,2 C 3,4 C 89 % 1022 hPa 0,0 l/m 0,0 m/s (0 Bft) O-NO 65 0 min 0 lux 1,8 C 3,4 C
12.04.2007 05:21 3,2 C 4,1 C 3,2 C 89 % 1022 hPa 0,0 l/m 0,0 m/s (0 Bft) O-NO 65 0 min 0 lux 1,6 C 3,2 C
12.04.2007 05:27 3,1 C 4,1 C 3,2 C 89 % 1022 hPa 0,0 l/m 0,0 m/s (0 Bft) O-NO 65 0 min 0 lux 1,5 C 3,1 C
12.04.2007 05:32 3,1 C 4,1 C 3,2 C 89 % 1022 hPa 0,0 l/m 0,0 m/s (0 Bft) O-NO 65 0 min 0 lux 1,5 C 3,1 C
12.04.2007 05:37 3,2 C 4,0 C 3,1 C 89 % 1022 hPa 0,0 l/m 0,0 m/s (0 Bft) O-NO 65 0 min 0 lux 1,6 C 3,2 C
12.04.2007 05:42 3,2 C 4,0 C 3,0 C 89 % 1022 hPa 0,0 l/m 0,0 m/s (0 Bft) O-NO 65 0 min 0 lux 1,6 C 3,2 C
12.04.2007 05:47 3,4 C 4,0 C 3,0 C 89 % 1022 hPa 0,0 l/m 0,0 m/s (0 Bft) O-NO 65 0 min 0 lux 1,8 C 3,4 C
12.04.2007 05:52 3,3 C 3,9 C 2,9 C 90 % 1022 hPa 0,0 l/m 0,0 m/s (0 Bft) O-NO 65 0 min 0 lux 1,8 C 3,3 C
12.04.2007 05:57 3,3 C 3,9 C 2,8 C 90 % 1022 hPa 0,0 l/m 0,0 m/s (0 Bft) O-NO 65 0 min 0 lux 1,8 C 3,3 C
12.04.2007 06:02 3,2 C 3,8 C 2,8 C 90 % 1022 hPa 0,0 l/m 0,0 m/s (0 Bft) O-NO 60 0 min 0 lux 1,7 C 3,2 C
12.04.2007 06:07 3,0 C 3,8 C 2,8 C 90 % 1022 hPa 0,0 l/m 0,0 m/s (0 Bft) O-NO 60 0 min 0 lux 1,5 C 3,0 C
12.04.2007 06:12 2,9 C 3,7 C 2,9 C 90 % 1022 hPa 0,0 l/m 0,0 m/s (0 Bft) O-NO 60 0 min 0 lux 1,4 C 2,9 C
12.04.2007 06:17 2,7 C 3,7 C 2,8 C 90 % 1022 hPa 0,0 l/m 0,0 m/s (0 Bft) O-NO 60 0 min 0 lux 1,2 C 2,7 C
12.04.2007 06:22 2,7 C 3,6 C 2,7 C 90 % 1022 hPa 0,0 l/m 0,0 m/s (0 Bft) O-NO 60 0 min 52 lux 1,2 C 2,7 C
12.04.2007 06:27 2,6 C 3,6 C 2,7 C 90 % 1022 hPa 0,0 l/m 0,0 m/s (0 Bft) O-NO 60 0 min 100 lux 1,1 C 2,6 C
12.04.2007 06:32 2,5 C 3,5 C 2,8 C 90 % 1022 hPa 0,0 l/m 0,0 m/s (0 Bft) O-NO 60 0 min 137 lux 1,0 C 2,5 C
12.04.2007 06:37 2,5 C 3,5 C 2,7 C 90 % 1022 hPa 0,0 l/m 0,0 m/s (0 Bft) O-NO 60 0 min 240 lux 1,0 C 2,5 C
12.04.2007 06:42 2,8 C 3,5 C 2,6 C 91 % 1022 hPa 0,0 l/m 0,0 m/s (0 Bft) O-NO 60 0 min 390 lux 1,5 C 2,8 C
12.04.2007 06:47 2,8 C 3,4 C 2,6 C 91 % 1022 hPa 0,0 l/m 0,0 m/s (0 Bft) O-NO 60 0 min 602 lux 1,5 C 2,8 C
12.04.2007 06:52 2,8 C 3,5 C 2,7 C 91 % 1022 hPa 0,0 l/m 0,0 m/s (0 Bft) O-NO 60 0 min 738 lux 1,5 C 2,8 C
12.04.2007 06:57 2,8 C 3,4 C 2,6 C 91 % 1022 hPa 0,0 l/m 0,0 m/s (0 Bft) O-NO 60 0 min 1,27 klux 1,5 C 2,8 C
12.04.2007 07:02 2,6 C 3,4 C 2,9 C 91 % 1022 hPa 0,0 l/m 0,0 m/s (0 Bft) O-NO 60 0 min 1,72 klux 1,3 C 2,6 C
12.04.2007 07:07 3,0 C 3,4 C 2,9 C 91 % 1022 hPa 0,0 l/m 0,0 m/s (0 Bft) O-NO 60 0 min 2,86 klux 1,7 C 3,0 C
12.04.2007 07:12 3,1 C 3,4 C 3,0 C 91 % 1022 hPa 0,0 l/m 0,0 m/s (0 Bft) O-NO 60 0 min 3,72 klux 1,8 C 3,1 C
12.04.2007 07:17 3,7 C 3,4 C 3,2 C 92 % 1022 hPa 0,0 l/m 0,0 m/s (0 Bft) O-NO 60 0 min 4,65 klux 2,5 C 3,7 C
12.04.2007 07:22 4,6 C 3,4 C 3,3 C 92 % 1022 hPa 0,0 l/m 0,0 m/s (0 Bft) O-NO 60 0 min 5,23 klux 3,4 C 4,6 C
12.04.2007 07:27 5,0 C 3,5 C 3,4 C 90 % 1022 hPa 0,0 l/m 0,0 m/s (0 Bft) O-NO 60 0 min 6,93 klux 3,5 C 5,0 C
12.04.2007 07:32 5,4 C 3,5 C 3,4 C 87 % 1023 hPa 0,0 l/m 0,0 m/s (0 Bft) O-NO 60 0 min 7,65 klux 3,4 C 5,4 C
12.04.2007 07:37 5,4 C 3,6 C 3,7 C 85 % 1022 hPa 0,0 l/m 0,0 m/s (0 Bft) O-NO 60 0 min 8,98 klux 3,1 C 5,4 C
12.04.2007 07:42 5,9 C 3,6 C 4,3 C 79 % 1022 hPa 0,0 l/m 0,0 m/s (0 Bft) O-NO 60 0 min 10,4 klux 2,5 C 5,9 C
12.04.2007 07:47 6,2 C 3,8 C 4,7 C 77 % 1023 hPa 0,0 l/m 0,0 m/s (0 Bft) O-NO 60 0 min 11,9 klux 2,5 C 6,2 C
12.04.2007 07:52 6,7 C 3,9 C 4,5 C 65 % 1023 hPa 0,0 l/m 0,0 m/s (0 Bft) O-NO 60 0 min 13,0 klux 0,6 C 6,7 C
12.04.2007 07:57 7,4 C 3,9 C 4,6 C 62 % 1023 hPa 0,0 l/m 0,0 m/s (0 Bft) O-NO 60 0 min 14,4 klux 0,6 C 7,4 C
12.04.2007 08:02 6,9 C 4,0 C 4,5 C 61 % 1023 hPa 0,0 l/m 0,0 m/s (0 Bft) O-NO 60 0 min 15,9 klux -0,1 C 6,9 C
12.04.2007 08:07 6,1 C 4,2 C 4,8 C 66 % 1023 hPa 0,0 l/m 0,0 m/s (0 Bft) O-NO 60 5 min 17,5 klux 0,2 C 6,1 C
12.04.2007 08:12 6,2 C 4,3 C 5,1 C 72 % 1023 hPa 0,0 l/m 0,0 m/s (0 Bft) O-NO 60 5 min 19,1 klux 1,5 C 6,2 C
12.04.2007 08:17 6,4 C 4,4 C 5,3 C 74 % 1023 hPa 0,0 l/m 0,0 m/s (0 Bft) O-NO 60 5 min 20,6 klux 2,1 C 6,4 C
12.04.2007 08:22 6,7 C 4,6 C 5,3 C 77 % 1023 hPa 0,0 l/m 0,0 m/s (0 Bft) O-NO 60 5 min 21,2 klux 3,0 C 6,7 C
12.04.2007 08:27 6,9 C 4,9 C 5,7 C 78 % 1023 hPa 0,0 l/m 0,0 m/s (0 Bft) O-NO 60 5 min 22,7 klux 3,3 C 6,9 C
12.04.2007 08:32 7,0 C 4,9 C 5,8 C 77 % 1023 hPa 0,0 l/m 0,0 m/s (0 Bft) O-NO 60 5 min 24,5 klux 3,2 C 7,0 C
12.04.2007 08:37 7,3 C 5,2 C 6,3 C 77 % 1023 hPa 0,0 l/m 0,0 m/s (0 Bft) O-NO 60 5 min 25,9 klux 3,5 C 7,3 C
12.04.2007 08:42 7,7 C 5,4 C 6,8 C 76 % 1023 hPa 0,0 l/m 0,0 m/s (0 Bft) O-NO 65 5 min 27,5 klux 3,7 C 7,7 C
12.04.2007 08:47 7,9 C 5,7 C 7,3 C 76 % 1023 hPa 0,0 l/m 0,0 m/s (0 Bft) O-NO 65 5 min 28,2 klux 3,9 C 7,9 C
12.04.2007 08:52 8,1 C 5,8 C 7,7 C 72 % 1023 hPa 0,0 l/m 0,0 m/s (0 Bft) O-NO 65 5 min 30,1 klux 3,4 C 8,1 C
12.04.2007 08:57 8,5 C 6,1 C 7,7 C 71 % 1023 hPa 0,0 l/m 0,0 m/s (0 Bft) O-NO 65 5 min 31,5 klux 3,5 C 8,5 C
12.04.2007 09:02 9,1 C 6,4 C 8,0 C 70 % 1023 hPa 0,0 l/m 2,0 m/s (2 Bft) S-SO45 150 5 min 32,9 klux 3,9 C 8,5 C
12.04.2007 09:07 9,5 C 6,6 C 8,4 C 70 % 1023 hPa 0,0 l/m 0,9 m/s (1 Bft) S-SO22.5 150 5 min 34,3 klux 4,3 C 9,5 C
12.04.2007 09:12 9,8 C 6,9 C 8,9 C 69 % 1022 hPa 0,0 l/m 2,1 m/s (2 Bft) SO45 140 5 min 35,4 klux 4,4 C 9,0 C
12.04.2007 09:17 10,6 C 7,3 C 8,9 C 64 % 1022 hPa 0,0 l/m 2,2 m/s (2 Bft) S-SO45 155 5 min 36,0 klux 4,1 C 9,6 C
12.04.2007 09:22 10,8 C 7,7 C 8,9 C 64 % 1022 hPa 0,0 l/m 1,8 m/s (2 Bft) S-SO22.5 155 5 min 37,4 klux 4,3 C 10,8 C
12.04.2007 09:27 11,2 C 7,9 C 9,5 C 62 % 1022 hPa 0,0 l/m 2,6 m/s (2 Bft) SO45 140 5 min 38,6 klux 4,2 C 9,2 C
12.04.2007 09:32 11,8 C 8,4 C 9,7 C 59 % 1022 hPa 0,0 l/m 3,9 m/s (3 Bft) SO22.5 135 5 min 40,0 klux 4,1 C 7,7 C
12.04.2007 09:37 12,0 C 8,8 C 10,0 C 57 % 1022 hPa 0,0 l/m 2,4 m/s (2 Bft) SO45 140 5 min 41,3 klux 3,8 C 10,5 C
12.04.2007 09:42 12,4 C 9,0 C 10,1 C 55 % 1022 hPa 0,0 l/m 3,2 m/s (2 Bft) SO67.5 130 5 min 42,3 klux 3,6 C 9,6 C
12.04.2007 09:47 12,5 C 9,5 C 10,3 C 54 % 1022 hPa 0,0 l/m 3,6 m/s (3 Bft) SO45 125 5 min 43,1 klux 3,5 C 9,0 C
12.04.2007 09:52 12,8 C 9,8 C 10,4 C 54 % 1022 hPa 0,0 l/m 3,4 m/s (2 Bft) SO45 135 5 min 44,1 klux 3,7 C 9,7 C
12.04.2007 09:57 13,0 C 10,0 C 10,7 C 53 % 1022 hPa 0,0 l/m 4,5 m/s (3 Bft) O67.5 100 5 min 44,7 klux 3,6 C 8,3 C
12.04.2007 10:02 12,9 C 10,4 C 10,8 C 53 % 1022 hPa 0,0 l/m 2,8 m/s (2 Bft) O45 100 5 min 45,6 klux 3,6 C 10,8 C
12.04.2007 10:07 13,3 C 10,7 C 10,7 C 51 % 1022 hPa 0,0 l/m 3,2 m/s (2 Bft) O-SO22.5 120 5 min 46,5 klux 3,4 C 10,5 C
12.04.2007 10:12 13,3 C 11,1 C 11,3 C 51 % 1022 hPa 0,0 l/m 2,4 m/s (2 Bft) O-SO45 115 5 min 47,5 klux 3,4 C 12,0 C
12.04.2007 10:17 13,7 C 11,3 C 11,5 C 51 % 1022 hPa 0,0 l/m 3,0 m/s (2 Bft) O-SO45 115 5 min 48,4 klux 3,8 C 11,3 C
12.04.2007 10:22 14,1 C 11,6 C 11,8 C 50 % 1022 hPa 0,0 l/m 2,6 m/s (2 Bft) SO22.5 125 5 min 49,3 klux 3,8 C 12,4 C
12.04.2007 10:27 14,2 C 11,9 C 11,8 C 50 % 1022 hPa 0,0 l/m 2,5 m/s (2 Bft) SO22.5 130 5 min 50,2 klux 3,9 C 12,7 C
12.04.2007 10:32 14,2 C 12,1 C 12,0 C 49 % 1022 hPa 0,0 l/m 3,8 m/s (3 Bft) SO45 125 5 min 51,0 klux 3,6 C 10,8 C
12.04.2007 10:37 14,6 C 12,6 C 12,3 C 48 % 1022 hPa 0,0 l/m 3,5 m/s (3 Bft) SO67.5 140 5 min 52,4 klux 3,7 C 11,6 C
12.04.2007 10:42 14,5 C 13,9 C 12,3 C 48 % 1022 hPa 0,0 l/m 4,3 m/s (3 Bft) SO45 130 5 min 53,3 klux 3,6 C 10,4 C
12.04.2007 10:47 14,7 C 15,4 C 12,6 C 48 % 1022 hPa 0,0 l/m 2,1 m/s (2 Bft) SO67.5 135 5 min 53,7 klux 3,8 C 14,1 C
12.04.2007 10:52 14,8 C 16,1 C 13,0 C 47 % 1022 hPa 0,0 l/m 2,8 m/s (2 Bft) SO45 145 5 min 55,1 klux 3,6 C 12,9 C
12.04.2007 10:57 15,0 C 17,4 C 13,5 C 46 % 1022 hPa 0,0 l/m 3,0 m/s (2 Bft) SO22.5 140 5 min 55,5 klux 3,5 C 12,7 C
12.04.2007 11:02 15,2 C 18,8 C 14,0 C 46 % 1022 hPa 0,0 l/m 2,8 m/s (2 Bft) SO45 140 5 min 55,7 klux 3,7 C 13,4 C
12.04.2007 11:07 14,9 C 19,1 C 14,2 C 46 % 1022 hPa 0,0 l/m 4,1 m/s (3 Bft) O-SO45 110 5 min 56,9 klux 3,4 C 11,2 C
12.04.2007 11:12 15,2 C 19,6 C 15,0 C 46 % 1022 hPa 0,0 l/m 4,2 m/s (3 Bft) O-SO45 110 5 min 57,8 klux 3,7 C 11,4 C
12.04.2007 11:17 15,5 C 20,8 C 15,0 C 46 % 1022 hPa 0,0 l/m 3,9 m/s (3 Bft) SO22.5 125 5 min 58,3 klux 3,9 C 12,2 C
12.04.2007 11:22 15,8 C 21,3 C 15,5 C 44 % 1022 hPa 0,0 l/m 4,1 m/s (3 Bft) SO45 140 5 min 58,8 klux 3,6 C 12,3 C
12.04.2007 11:27 15,9 C 22,0 C 16,3 C 44 % 1022 hPa 0,0 l/m 3,6 m/s (3 Bft) SO45 135 5 min 59,5 klux 3,7 C 12,9 C
12.04.2007 11:32 16,1 C 22,7 C 16,9 C 43 % 1022 hPa 0,0 l/m 3,6 m/s (3 Bft) SO45 140 5 min 60,1 klux 3,5 C 13,2 C
12.04.2007 11:37 16,2 C 22,8 C 17,0 C 42 % 1022 hPa 0,0 l/m 4,6 m/s (3 Bft) O-SO67.5 110 5 min 60,1 klux 3,3 C 12,2 C
12.04.2007 11:42 16,4 C 23,2 C 17,3 C 43 % 1022 hPa 0,0 l/m 4,3 m/s (3 Bft) SO45 125 5 min 61,4 klux 3,8 C 12,8 C
12.04.2007 11:47 16,5 C 24,0 C 17,8 C 42 % 1022 hPa 0,0 l/m 4,0 m/s (3 Bft) O-SO45 120 5 min 61,7 klux 3,5 C 13,2 C
12.04.2007 11:52 16,6 C 24,4 C 17,8 C 41 % 1022 hPa 0,0 l/m 4,4 m/s (3 Bft) SO22.5 125 5 min 61,1 klux 3,3 C 12,9 C
12.04.2007 11:57 16,4 C 24,8 C 18,3 C 41 % 1022 hPa 0,0 l/m 4,3 m/s (3 Bft) O-SO67.5 115 5 min 62,7 klux 3,1 C 12,7 C
12.04.2007 12:02 16,8 C 24,4 C 18,7 C 43 % 1022 hPa 0,0 l/m 5,1 m/s (3 Bft) O45 100 5 min 62,7 klux 4,2 C 12,4 C
12.04.2007 12:07 16,9 C 24,5 C 19,0 C 41 % 1022 hPa 0,0 l/m 4,6 m/s (3 Bft) O67.5 95 5 min 63,6 klux 3,6 C 13,0 C
12.04.2007 12:12 17,0 C 24,7 C 19,7 C 41 % 1022 hPa 0,0 l/m 4,5 m/s (3 Bft) O-SO45 115 5 min 63,7 klux 3,7 C 13,3 C
12.04.2007 12:17 17,0 C 24,9 C 19,6 C 41 % 1022 hPa 0,0 l/m 4,4 m/s (3 Bft) O-SO22.5 120 5 min 64,1 klux 3,7 C 13,3 C
12.04.2007 12:22 17,2 C 25,4 C 20,1 C 40 % 1022 hPa 0,0 l/m 3,6 m/s (3 Bft) O-SO45 120 5 min 64,7 klux 3,5 C 14,4 C
12.04.2007 12:27 17,6 C 25,8 C 20,4 C 41 % 1022 hPa 0,0 l/m 4,0 m/s (3 Bft) O45 100 5 min 64,5 klux 4,2 C 14,5 C
12.04.2007 12:32 17,8 C 26,1 C 20,2 C 41 % 1022 hPa 0,0 l/m 4,7 m/s (3 Bft) O67.5 85 5 min 64,0 klux 4,4 C 14,1 C
12.04.2007 12:37 17,6 C 26,8 C 20,8 C 40 % 1022 hPa 0,0 l/m 3,7 m/s (3 Bft) SO22.5 140 5 min 65,2 klux 3,8 C 14,8 C
12.04.2007 12:42 18,0 C 27,0 C 21,0 C 39 % 1022 hPa 0,0 l/m 4,5 m/s (3 Bft) SO45 135 5 min 66,4 klux 3,8 C 14,5 C
12.04.2007 12:47 18,1 C 26,9 C 21,0 C 40 % 1022 hPa 0,0 l/m 3,9 m/s (3 Bft) O-SO45 110 5 min 66,4 klux 4,3 C 15,2 C
12.04.2007 12:52 18,1 C 27,1 C 21,0 C 39 % 1022 hPa 0,0 l/m 3,8 m/s (3 Bft) O-NO67.5 75 5 min 67,2 klux 3,9 C 15,3 C
12.04.2007 12:57 18,3 C 27,4 C 20,0 C 40 % 1022 hPa 0,0 l/m 4,3 m/s (3 Bft) O-SO45 115 5 min 67,0 klux 4,5 C 15,0 C
12.04.2007 13:02 18,5 C 27,4 C 20,1 C 40 % 1022 hPa 0,0 l/m 3,8 m/s (3 Bft) SO45 125 5 min 66,6 klux 4,6 C 15,8 C
12.04.2007 13:07 18,1 C 27,4 C 19,6 C 39 % 1022 hPa 0,0 l/m 4,2 m/s (3 Bft) O-SO45 120 5 min 67,3 klux 3,9 C 14,9 C
12.04.2007 13:12 18,4 C 27,5 C 19,4 C 40 % 1022 hPa 0,0 l/m 4,8 m/s (3 Bft) O45 90 5 min 66,6 klux 4,6 C 14,7 C
12.04.2007 13:17 18,1 C 27,5 C 19,4 C 38 % 1022 hPa 0,0 l/m 4,8 m/s (3 Bft) O45 100 5 min 68,7 klux 3,6 C 14,4 C
12.04.2007 13:22 18,7 C 27,6 C 19,3 C 40 % 1022 hPa 0,0 l/m 4,3 m/s (3 Bft) O67.5 80 5 min 67,2 klux 4,8 C 15,6 C
12.04.2007 13:27 18,8 C 28,1 C 19,1 C 39 % 1022 hPa 0,0 l/m 4,4 m/s (3 Bft) O-SO22.5 110 5 min 67,3 klux 4,6 C 15,6 C
12.04.2007 13:32 18,8 C 28,5 C 19,1 C 39 % 1022 hPa 0,0 l/m 3,3 m/s (2 Bft) O-SO45 105 5 min 66,4 klux 4,6 C 16,7 C
12.04.2007 13:37 19,1 C 28,9 C 19,1 C 38 % 1022 hPa 0,0 l/m 5,3 m/s (3 Bft) O67.5 85 5 min 67,0 klux 4,4 C 15,2 C
12.04.2007 13:42 19,0 C 29,2 C 19,0 C 36 % 1021 hPa 0,0 l/m 3,6 m/s (3 Bft) SO45 125 5 min 67,3 klux 3,6 C 16,6 C
12.04.2007 13:47 19,0 C 29,5 C 18,7 C 37 % 1021 hPa 0,0 l/m 3,6 m/s (3 Bft) O-SO22.5 105 5 min 67,8 klux 4,0 C 16,6 C
12.04.2007 13:52 19,2 C 29,9 C 18,8 C 37 % 1021 hPa 0,0 l/m 3,9 m/s (3 Bft) O-SO45 120 5 min 68,1 klux 4,2 C 16,5 C
12.04.2007 13:57 19,9 C 30,4 C 18,8 C 37 % 1021 hPa 0,0 l/m 3,3 m/s (2 Bft) SO67.5 140 5 min 67,8 klux 4,8 C 17,9 C
12.04.2007 14:02 20,0 C 30,3 C 18,8 C 37 % 1021 hPa 0,0 l/m 4,9 m/s (3 Bft) SO67.5 145 5 min 66,2 klux 4,9 C 16,7 C
12.04.2007 14:07 19,9 C 30,3 C 18,8 C 37 % 1021 hPa 0,0 l/m 3,8 m/s (3 Bft) SO45 140 5 min 67,0 klux 4,8 C 17,5 C
12.04.2007 14:12 20,0 C 30,5 C 18,7 C 36 % 1021 hPa 0,0 l/m 4,2 m/s (3 Bft) SO22.5 140 5 min 66,8 klux 4,5 C 17,2 C
12.04.2007 14:17 20,2 C 30,6 C 19,0 C 36 % 1021 hPa 0,0 l/m 4,5 m/s (3 Bft) SO22.5 140 5 min 66,7 klux 4,7 C 17,2 C
12.04.2007 14:22 20,2 C 30,4 C 18,8 C 36 % 1021 hPa 0,0 l/m 3,7 m/s (3 Bft) SO67.5 140 5 min 66,7 klux 4,7 C 17,9 C
12.04.2007 14:27 19,8 C 30,6 C 18,7 C 35 % 1021 hPa 0,0 l/m 3,1 m/s (2 Bft) O-SO45 115 5 min 66,0 klux 3,9 C 18,1 C
12.04.2007 14:32 20,6 C 31,0 C 18,7 C 35 % 1021 hPa 0,0 l/m 5,0 m/s (3 Bft) O-SO45 120 5 min 66,3 klux 4,6 C 17,3 C
12.04.2007 14:37 20,1 C 31,0 C 18,6 C 35 % 1021 hPa 0,0 l/m 4,8 m/s (3 Bft) SO22.5 130 5 min 66,7 klux 4,2 C 16,9 C
12.04.2007 14:42 20,1 C 31,7 C 18,8 C 36 % 1021 hPa 0,0 l/m 5,9 m/s (4 Bft) SO45 125 5 min 65,2 klux 4,6 C 16,1 C
12.04.2007 14:47 20,5 C 31,7 C 18,8 C 35 % 1021 hPa 0,0 l/m 5,9 m/s (4 Bft) O-SO45 120 5 min 65,6 klux 4,5 C 16,6 C
12.04.2007 14:52 20,4 C 31,8 C 18,8 C 35 % 1021 hPa 0,0 l/m 3,3 m/s (2 Bft) O-SO45 120 5 min 65,0 klux 4,4 C 18,5 C
12.04.2007 14:57 20,4 C 32,5 C 18,8 C 35 % 1021 hPa 0,0 l/m 4,4 m/s (3 Bft) O-SO45 115 5 min 64,3 klux 4,4 C 17,5 C
12.04.2007 15:02 20,4 C 32,0 C 18,8 C 35 % 1021 hPa 0,0 l/m 5,4 m/s (3 Bft) SO45 125 5 min 64,1 klux 4,4 C 16,8 C
12.04.2007 15:07 20,1 C 32,3 C 18,4 C 33 % 1021 hPa 0,0 l/m 4,7 m/s (3 Bft) SO22.5 125 5 min 63,4 klux 3,3 C 17,0 C
12.04.2007 15:12 20,6 C 32,8 C 18,6 C 35 % 1021 hPa 0,0 l/m 4,6 m/s (3 Bft) SO45 125 5 min 63,4 klux 4,6 C 17,6 C
12.04.2007 15:17 20,5 C 32,7 C 18,5 C 35 % 1021 hPa 0,0 l/m 5,2 m/s (3 Bft) O-SO45 120 5 min 64,6 klux 4,5 C 17,1 C
12.04.2007 15:22 20,5 C 32,9 C 18,6 C 35 % 1021 hPa 0,0 l/m 4,3 m/s (3 Bft) SO45 125 5 min 60,1 klux 4,5 C 17,7 C
12.04.2007 15:27 20,5 C 32,9 C 18,6 C 35 % 1021 hPa 0,0 l/m 4,9 m/s (3 Bft) SO45 130 5 min 60,6 klux 4,5 C 17,3 C
12.04.2007 15:32 20,4 C 32,8 C 18,8 C 34 % 1021 hPa 0,0 l/m 5,1 m/s (3 Bft) O45 90 5 min 60,7 klux 4,0 C 17,0 C
12.04.2007 15:37 20,8 C 32,9 C 18,5 C 35 % 1021 hPa 0,0 l/m 5,8 m/s (4 Bft) O-SO45 115 5 min 59,4 klux 4,8 C 17,1 C
12.04.2007 15:42 20,8 C 33,0 C 18,7 C 35 % 1020 hPa 0,0 l/m 5,5 m/s (3 Bft) O-SO22.5 120 5 min 57,4 klux 4,8 C 17,3 C
12.04.2007 15:47 20,8 C 32,6 C 18,7 C 35 % 1020 hPa 0,0 l/m 4,4 m/s (3 Bft) O-SO22.5 105 5 min 57,2 klux 4,8 C 18,0 C
12.04.2007 15:52 20,8 C 32,6 C 18,7 C 33 % 1020 hPa 0,0 l/m 6,0 m/s (4 Bft) O-SO45 105 5 min 56,4 klux 3,9 C 17,0 C
12.04.2007 15:57 20,9 C 32,6 C 18,7 C 34 % 1020 hPa 0,0 l/m 7,6 m/s (4 Bft) O-SO22.5 120 5 min 57,2 klux 4,4 C 16,3 C
12.04.2007 16:02 21,0 C 32,6 C 18,8 C 33 % 1020 hPa 0,0 l/m 6,4 m/s (4 Bft) O-SO22.5 115 5 min 57,0 klux 4,1 C 17,0 C
12.04.2007 16:07 21,3 C 32,6 C 18,7 C 34 % 1020 hPa 0,0 l/m 5,3 m/s (3 Bft) O-SO22.5 105 5 min 55,4 klux 4,8 C 18,0 C
12.04.2007 16:12 21,4 C 32,6 C 19,0 C 33 % 1020 hPa 0,0 l/m 5,2 m/s (3 Bft) O67.5 80 5 min 53,7 klux 4,5 C 18,2 C
12.04.2007 16:17 21,3 C 32,5 C 19,0 C 33 % 1020 hPa 0,0 l/m 6,3 m/s (4 Bft) O-SO22.5 110 5 min 52,4 klux 4,4 C 17,5 C
12.04.2007 16:22 21,3 C 32,1 C 18,7 C 33 % 1020 hPa 0,0 l/m 5,3 m/s (3 Bft) O67.5 90 5 min 52,7 klux 4,4 C 18,0 C
12.04.2007 16:27 21,2 C 32,2 C 18,6 C 33 % 1020 hPa 0,0 l/m 4,1 m/s (3 Bft) O-SO22.5 120 5 min 51,6 klux 4,3 C 18,8 C
12.04.2007 16:32 21,2 C 32,3 C 18,9 C 33 % 1020 hPa 0,0 l/m 6,2 m/s (4 Bft) O-SO22.5 115 5 min 50,1 klux 4,3 C 17,4 C
12.04.2007 16:37 21,4 C 32,2 C 18,8 C 33 % 1020 hPa 0,0 l/m 5,1 m/s (3 Bft) O45 95 5 min 50,7 klux 4,5 C 18,3 C
12.04.2007 16:42 21,5 C 32,6 C 18,8 C 32 % 1020 hPa 0,0 l/m 3,1 m/s (2 Bft) O45 85 5 min 48,4 klux 4,1 C 20,0 C
12.04.2007 16:47 21,2 C 32,5 C 18,7 C 31 % 1020 hPa 0,0 l/m 5,4 m/s (3 Bft) O-SO22.5 120 5 min 48,4 klux 3,4 C 17,9 C
12.04.2007 16:52 21,2 C 32,8 C 19,0 C 31 % 1020 hPa 0,0 l/m 5,5 m/s (4 Bft) O-SO45 115 5 min 47,2 klux 3,4 C 17,8 C
12.04.2007 16:57 21,1 C 32,6 C 18,7 C 32 % 1020 hPa 0,0 l/m 5,9 m/s (4 Bft) O-SO22.5 120 5 min 47,8 klux 3,8 C 17,4 C
12.04.2007 17:02 21,3 C 32,6 C 18,8 C 32 % 1020 hPa 0,0 l/m 5,5 m/s (4 Bft) O-SO22.5 115 5 min 46,1 klux 3,9 C 17,9 C
12.04.2007 17:07 21,3 C 32,5 C 18,7 C 32 % 1020 hPa 0,0 l/m 5,4 m/s (3 Bft) O45 100 5 min 44,1 klux 3,9 C 18,0 C
12.04.2007 17:12 21,1 C 31,9 C 18,7 C 32 % 1020 hPa 0,0 l/m 5,3 m/s (3 Bft) O-SO45 115 5 min 43,2 klux 3,8 C 17,8 C
12.04.2007 17:17 21,1 C 31,8 C 18,5 C 32 % 1020 hPa 0,0 l/m 6,0 m/s (4 Bft) SO22.5 125 5 min 42,4 klux 3,8 C 17,4 C
12.04.2007 17:22 21,0 C 31,5 C 18,4 C 31 % 1020 hPa 0,0 l/m 7,3 m/s (4 Bft) SO22.5 125 5 min 41,0 klux 3,2 C 16,6 C
12.04.2007 17:27 21,1 C 31,3 C 18,8 C 32 % 1020 hPa 0,0 l/m 6,2 m/s (4 Bft) O-SO45 120 5 min 41,0 klux 3,8 C 17,3 C
12.04.2007 17:32 21,0 C 31,2 C 18,5 C 30 % 1020 hPa 0,0 l/m 5,6 m/s (4 Bft) SO22.5 130 5 min 39,6 klux 2,8 C 17,5 C
12.04.2007 17:37 21,0 C 31,1 C 18,5 C 32 % 1020 hPa 0,0 l/m 5,9 m/s (4 Bft) O-SO22.5 115 5 min 37,4 klux 3,7 C 17,3 C
12.04.2007 17:42 21,0 C 30,6 C 18,4 C 32 % 1020 hPa 0,0 l/m 5,9 m/s (4 Bft) O-SO45 115 5 min 38,1 klux 3,7 C 17,3 C
12.04.2007 17:47 21,0 C 30,7 C 18,6 C 32 % 1020 hPa 0,0 l/m 5,3 m/s (3 Bft) SO22.5 125 5 min 35,2 klux 3,7 C 17,7 C
12.04.2007 17:52 20,8 C 30,3 C 18,5 C 33 % 1020 hPa 0,0 l/m 5,2 m/s (3 Bft) O-SO22.5 120 5 min 35,2 klux 3,9 C 17,5 C
12.04.2007 17:57 20,9 C 30,0 C 18,5 C 34 % 1020 hPa 0,0 l/m 5,6 m/s (4 Bft) O-SO22.5 105 5 min 31,2 klux 4,4 C 17,3 C
12.04.2007 18:02 20,9 C 29,0 C 18,5 C 34 % 1020 hPa 0,0 l/m 6,5 m/s (4 Bft) O-SO45 115 0 min 16,0 klux 4,4 C 16,8 C
12.04.2007 18:07 20,8 C 28,7 C 18,7 C 33 % 1020 hPa 0,0 l/m 5,4 m/s (3 Bft) O67.5 85 5 min 32,3 klux 3,9 C 17,3 C
12.04.2007 18:12 20,8 C 28,3 C 19,1 C 34 % 1020 hPa 0,0 l/m 5,1 m/s (3 Bft) O-SO45 105 5 min 27,7 klux 4,4 C 17,5 C
12.04.2007 18:17 20,7 C 28,0 C 19,2 C 35 % 1020 hPa 0,0 l/m 4,0 m/s (3 Bft) O67.5 95 5 min 24,2 klux 4,7 C 18,3 C
12.04.2007 18:22 20,6 C 27,3 C 19,2 C 35 % 1020 hPa 0,0 l/m 5,7 m/s (4 Bft) O45 95 0 min 22,0 klux 4,6 C 16,9 C
12.04.2007 18:27 20,3 C 26,9 C 18,8 C 35 % 1020 hPa 0,0 l/m 3,9 m/s (3 Bft) O45 95 0 min 16,0 klux 4,3 C 17,9 C
12.04.2007 18:32 20,3 C 26,2 C 18,6 C 35 % 1020 hPa 0,0 l/m 4,6 m/s (3 Bft) O45 100 0 min 15,5 klux 4,3 C 17,3 C
12.04.2007 18:37 20,2 C 25,8 C 18,7 C 35 % 1020 hPa 0,0 l/m 4,3 m/s (3 Bft) O-SO45 105 0 min 12,5 klux 4,2 C 17,4 C
12.04.2007 18:42 19,9 C 24,9 C 18,2 C 36 % 1020 hPa 0,0 l/m 4,8 m/s (3 Bft) O-SO22.5 110 0 min 10,4 klux 4,4 C 16,6 C
12.04.2007 18:47 19,9 C 24,3 C 18,4 C 37 % 1020 hPa 0,0 l/m 3,3 m/s (2 Bft) O22.5 100 0 min 13,1 klux 4,8 C 18,0 C
12.04.2007 18:52 20,0 C 24,0 C 18,3 C 36 % 1020 hPa 0,0 l/m 3,1 m/s (2 Bft) O45 95 0 min 16,6 klux 4,5 C 18,3 C
12.04.2007 18:57 19,9 C 23,6 C 18,3 C 36 % 1020 hPa 0,0 l/m 3,9 m/s (3 Bft) O22.5 100 0 min 13,7 klux 4,4 C 17,4 C
12.04.2007 19:02 20,0 C 23,5 C 18,2 C 36 % 1020 hPa 0,0 l/m 4,3 m/s (3 Bft) O45 100 5 min 15,1 klux 4,5 C 17,2 C
12.04.2007 19:07 19,8 C 23,5 C 18,7 C 37 % 1020 hPa 0,0 l/m 4,3 m/s (3 Bft) O45 90 5 min 15,8 klux 4,7 C 16,9 C
12.04.2007 19:12 19,9 C 23,4 C 18,4 C 36 % 1020 hPa 0,0 l/m 4,8 m/s (3 Bft) O67.5 85 0 min 11,6 klux 4,4 C 16,6 C
12.04.2007 19:17 19,8 C 23,0 C 17,9 C 36 % 1020 hPa 0,0 l/m 3,6 m/s (3 Bft) O-NO67.5 70 0 min 10,4 klux 4,3 C 17,5 C
12.04.2007 19:22 19,8 C 22,5 C 17,7 C 37 % 1020 hPa 0,0 l/m 4,0 m/s (3 Bft) O45 80 0 min 9,5 klux 4,7 C 17,1 C
12.04.2007 19:27 19,8 C 22,4 C 17,2 C 37 % 1020 hPa 0,0 l/m 3,9 m/s (3 Bft) O45 80 5 min 9,8 klux 4,7 C 17,2 C
12.04.2007 19:32 20,2 C 22,5 C 17,1 C 36 % 1020 hPa 0,0 l/m 3,0 m/s (2 Bft) O-NO45 70 5 min 9,3 klux 4,7 C 18,6 C
12.04.2007 19:37 19,6 C 22,2 C 16,7 C 37 % 1020 hPa 0,0 l/m 1,3 m/s (1 Bft) N-NO45 25 5 min 8,10 klux 4,5 C 19,6 C
12.04.2007 19:42 19,1 C 21,6 C 16,5 C 39 % 1020 hPa 0,0 l/m 2,2 m/s (2 Bft) NO45 50 5 min 6,12 klux 4,8 C 18,4 C
12.04.2007 19:47 18,9 C 21,1 C 16,4 C 39 % 1020 hPa 0,0 l/m 0,4 m/s (1 Bft) NO45 50 0 min 4,29 klux 4,6 C 18,9 C
12.04.2007 19:52 18,7 C 20,8 C 16,2 C 40 % 1020 hPa 0,0 l/m 3,6 m/s (3 Bft) O-NO67.5 60 5 min 3,90 klux 4,8 C 16,3 C
12.04.2007 19:57 18,3 C 20,3 C 16,1 C 40 % 1020 hPa 0,0 l/m 2,0 m/s (2 Bft) NO45 55 5 min 3,13 klux 4,5 C 18,0 C
12.04.2007 20:02 18,1 C 20,0 C 16,0 C 41 % 1020 hPa 0,0 l/m 2,8 m/s (2 Bft) O-NO45 65 5 min 2,34 klux 4,6 C 16,5 C
12.04.2007 20:07 17,8 C 19,7 C 15,8 C 41 % 1020 hPa 0,0 l/m 2,8 m/s (2 Bft) O-NO45 75 0 min 1,66 klux 4,4 C 16,2 C
12.04.2007 20:12 17,7 C 19,3 C 15,4 C 42 % 1020 hPa 0,0 l/m 0,2 m/s (0 Bft) N-NO45 30 0 min 1,09 klux 4,6 C 17,7 C
12.04.2007 20:17 17,5 C 18,9 C 15,1 C 42 % 1020 hPa 0,0 l/m 1,7 m/s (2 Bft) NO45 50 0 min 672 lux 4,4 C 17,5 C
12.04.2007 20:22 17,3 C 18,5 C 14,8 C 43 % 1020 hPa 0,0 l/m 0,2 m/s (0 Bft) O-NO22.5 65 0 min 347 lux 4,6 C 17,3 C
12.04.2007 20:27 16,9 C 18,3 C 14,7 C 45 % 1020 hPa 0,0 l/m 1,9 m/s (2 Bft) O-NO22.5 75 0 min 188 lux 4,9 C 16,8 C
12.04.2007 20:32 16,8 C 18,0 C 14,4 C 45 % 1020 hPa 0,0 l/m 2,7 m/s (2 Bft) O-NO45 65 0 min 92 lux 4,8 C 15,2 C
12.04.2007 20:37 16,5 C 17,7 C 14,4 C 45 % 1020 hPa 0,0 l/m 1,3 m/s (1 Bft) NO22.5 55 0 min 46 lux 4,5 C 16,5 C
12.04.2007 20:42 16,7 C 17,6 C 14,5 C 45 % 1020 hPa 0,0 l/m 4,6 m/s (3 Bft) O-NO45 70 0 min 33 lux 4,7 C 12,8 C
12.04.2007 20:47 16,5 C 17,3 C 14,0 C 45 % 1020 hPa 0,0 l/m 2,4 m/s (2 Bft) O-NO45 70 0 min 17 lux 4,5 C 15,4 C
12.04.2007 20:52 16,6 C 17,0 C 13,9 C 45 % 1020 hPa 0,0 l/m 3,2 m/s (2 Bft) O-NO45 60 0 min 12 lux 4,6 C 14,3 C
12.04.2007 20:57 16,2 C 16,9 C 13,8 C 46 % 1020 hPa 0,0 l/m 1,1 m/s (1 Bft) NO22.5 45 0 min 9 lux 4,6 C 16,2 C
12.04.2007 21:02 16,2 C 16,8 C 13,9 C 45 % 1020 hPa 0,0 l/m 1,8 m/s (2 Bft) NO45 50 0 min 5 lux 4,3 C 16,2 C
12.04.2007 21:07 16,0 C 16,5 C 13,6 C 46 % 1020 hPa 0,0 l/m 2,0 m/s (2 Bft) NO45 45 0 min 5 lux 4,4 C 15,6 C
12.04.2007 21:12 16,0 C 16,4 C 13,7 C 46 % 1021 hPa 0,0 l/m 2,2 m/s (2 Bft) NO45 35 0 min 4 lux 4,4 C 15,3 C
12.04.2007 21:17 16,0 C 16,3 C 13,6 C 46 % 1021 hPa 0,0 l/m 1,6 m/s (1 Bft) N-NO45 25 0 min 4 lux 4,4 C 16,0 C
12.04.2007 21:22 15,9 C 16,1 C 13,1 C 47 % 1021 hPa 0,0 l/m 0,9 m/s (1 Bft) N-NO22.5 30 0 min 2 lux 4,6 C 15,9 C
12.04.2007 21:27 15,4 C 15,9 C 13,2 C 48 % 1021 hPa 0,0 l/m 1,5 m/s (1 Bft) NO22.5 50 0 min 2 lux 4,4 C 15,4 C
12.04.2007 21:32 15,4 C 15,9 C 13,2 C 49 % 1021 hPa 0,0 l/m 1,3 m/s (1 Bft) NO22.5 50 0 min 2 lux 4,7 C 15,4 C
12.04.2007 21:37 15,2 C 15,7 C 12,9 C 49 % 1021 hPa 0,0 l/m 1,4 m/s (1 Bft) NO22.5 50 0 min 2 lux 4,6 C 15,2 C
12.04.2007 21:42 15,1 C 15,5 C 12,9 C 50 % 1021 hPa 0,0 l/m 3,1 m/s (2 Bft) O-NO22.5 65 0 min 2 lux 4,8 C 12,7 C
12.04.2007 21:47 14,8 C 15,4 C 12,7 C 51 % 1021 hPa 0,0 l/m 1,3 m/s (1 Bft) O-NO22.5 60 0 min 1 lux 4,8 C 14,8 C
12.04.2007 21:52 14,7 C 15,3 C 12,5 C 52 % 1021 hPa 0,0 l/m 1,3 m/s (1 Bft) NO22.5 50 0 min 0 lux 5,0 C 14,7 C
12.04.2007 21:57 14,8 C 15,1 C 12,5 C 52 % 1021 hPa 0,0 l/m 2,9 m/s (2 Bft) O-NO22.5 60 0 min 0 lux 5,0 C 12,8 C
12.04.2007 22:02 14,6 C 15,0 C 12,4 C 52 % 1021 hPa 0,0 l/m 1,3 m/s (1 Bft) O-NO22.5 75 0 min 0 lux 4,9 C 14,6 C
12.04.2007 22:07 14,4 C 14,8 C 12,2 C 53 % 1021 hPa 0,0 l/m 2,1 m/s (2 Bft) O-NO22.5 65 0 min 0 lux 4,9 C 13,8 C
12.04.2007 22:12 14,4 C 14,7 C 12,1 C 53 % 1021 hPa 0,0 l/m 1,6 m/s (1 Bft) O-NO45 65 0 min 0 lux 4,9 C 14,4 C
12.04.2007 22:17 14,4 C 14,6 C 12,3 C 53 % 1021 hPa 0,0 l/m 3,0 m/s (2 Bft) O-NO22.5 70 0 min 0 lux 4,9 C 12,1 C
12.04.2007 22:22 14,9 C 14,6 C 12,4 C 53 % 1021 hPa 0,0 l/m 4,4 m/s (3 Bft) O45 90 0 min 0 lux 5,4 C 10,8 C
12.04.2007 22:27 14,8 C 14,6 C 12,6 C 52 % 1021 hPa 0,0 l/m 4,4 m/s (3 Bft) O45 80 0 min 0 lux 5,0 C 10,7 C
12.04.2007 22:32 14,6 C 14,6 C 12,3 C 52 % 1021 hPa 0,0 l/m 3,1 m/s (2 Bft) O-NO67.5 75 0 min 0 lux 4,9 C 12,1 C
12.04.2007 22:37 14,5 C 14,5 C 12,3 C 53 % 1021 hPa 0,0 l/m 3,1 m/s (2 Bft) O-NO45 75 0 min 0 lux 5,0 C 12,0 C
12.04.2007 22:42 14,4 C 14,5 C 12,1 C 53 % 1021 hPa 0,0 l/m 3,4 m/s (2 Bft) O-NO45 75 0 min 0 lux 4,9 C 11,5 C
12.04.2007 22:47 14,4 C 14,4 C 12,4 C 53 % 1021 hPa 0,0 l/m 3,8 m/s (3 Bft) O67.5 80 0 min 0 lux 4,9 C 11,0 C
12.04.2007 22:52 14,4 C 14,4 C 12,0 C 53 % 1021 hPa 0,0 l/m 1,9 m/s (2 Bft) O22.5 80 0 min 0 lux 4,9 C 14,1 C
12.04.2007 22:57 14,6 C 14,3 C 12,0 C 53 % 1021 hPa 0,0 l/m 2,8 m/s (2 Bft) O-NO45 65 0 min 0 lux 5,1 C 12,7 C
12.04.2007 23:02 14,4 C 14,3 C 12,2 C 53 % 1021 hPa 0,0 l/m 3,8 m/s (3 Bft) O-NO67.5 70 0 min 0 lux 4,9 C 10,9 C
12.04.2007 23:07 14,0 C 14,2 C 12,1 C 54 % 1021 hPa 0,0 l/m 3,6 m/s (3 Bft) O22.5 90 0 min 0 lux 4,8 C 10,7 C
12.04.2007 23:12 13,8 C 14,1 C 11,5 C 55 % 1021 hPa 0,0 l/m 1,7 m/s (2 Bft) O22.5 95 0 min 0 lux 4,9 C 13,8 C
12.04.2007 23:17 13,7 C 14,0 C 11,5 C 56 % 1021 hPa 0,0 l/m 0,1 m/s (0 Bft) O22.5 95 0 min 0 lux 5,1 C 13,7 C
12.04.2007 23:22 13,9 C 13,8 C 11,7 C 57 % 1021 hPa 0,0 l/m 1,8 m/s (2 Bft) O22.5 100 0 min 0 lux 5,5 C 13,9 C
12.04.2007 23:27 13,5 C 13,6 C 11,7 C 57 % 1021 hPa 0,0 l/m 1,8 m/s (2 Bft) O45 95 0 min 0 lux 5,2 C 13,5 C
12.04.2007 23:32 13,4 C 13,6 C 11,4 C 57 % 1021 hPa 0,0 l/m 1,4 m/s (1 Bft) O-SO22.5 120 0 min 0 lux 5,1 C 13,4 C
12.04.2007 23:37 13,0 C 13,4 C 11,1 C 58 % 1021 hPa 0,0 l/m 0,1 m/s (0 Bft) S-SO45 165 0 min 0 lux 4,9 C 13,0 C
12.04.2007 23:42 12,5 C 13,4 C 10,6 C 60 % 1021 hPa 0,0 l/m 0,0 m/s (0 Bft) S-SO45 165 0 min 0 lux 5,0 C 12,5 C
12.04.2007 23:47 12,5 C 13,3 C 11,0 C 61 % 1021 hPa 0,0 l/m 1,2 m/s (1 Bft) O-SO22.5 120 0 min 0 lux 5,2 C 12,5 C
12.04.2007 23:52 12,4 C 13,3 C 10,6 C 60 % 1021 hPa 0,0 l/m 0,1 m/s (0 Bft) O 95 0 min 0 lux 4,9 C 12,4 C
12.04.2007 23:57 12,2 C 13,0 C 10,4 C 61 % 1021 hPa 0,0 l/m 0,0 m/s (0 Bft) SO22.5 125 0 min 0 lux 4,9 C 12,2 C
_ Min-Zeit 06:32 06:47 06:42 17:32 15:42 - 00:07 - - - - 08:02 06:32
Minimum _ 2,5 C 3,4 C 2,6 C 30 % 1020 hPa - 0,0 m/s (0 Bft) - - - - -0,1 C 2,5 C
_ Max-Zeit 16:42 15:42 12:42 07:17 00:02 00:02 15:57 - - 08:07 13:17 23:22 16:42
Maximum _ 21,5 C 33,0 C 21,0 C 92 % 1023 hPa 0,0 l/m 7,6 m/s
O-SO (4 Bft)
- - 5 min 68,7 klux 5,5 C 20,0 C
Durchschnitt _ 12,8 C 16,1 C 11,7 C 58 % 1022 hPa #0,0 l/m 2,3 m/s (2 Bft) O-SO - #10:55 h 23,3 klux 3,5 C 11,3 C